FW0788 York Town AU current weather conditions

sailwx.info

Wind from 085

Air temperature 10.6° C
Dewpoint 9.9° C

Last reported at 2018-Apr-23 18:59 UTC.
Time now 2018-Apr-23 19:36 UTC

Location: S 41°10' E 146°46'.
View on Google Maps.

See reports from other nearby stations

  
Tides and Currents Weather Stations Pressure Air Temp Water Temp Dewpoint Dewpoint Depression Visibility Wind Speed Wind Dir Waves Ship Positions
date/time (UTC)wind fromknots sea level pressurealtimeterstation pressurevisibilityair tempwater tempwave heightnotes
2018-Apr-23 18:59 085 10.6
2018-Apr-23 18:44 085 0 gusting 1 10.6
2018-Apr-23 18:29 085 10.0
2018-Apr-23 18:14 085 10.0
2018-Apr-23 17:59 085 9.4
2018-Apr-23 17:44 085 9.4
2018-Apr-23 17:29 085 8.9
2018-Apr-23 17:15 085 8.9
2018-Apr-23 16:59 085 8.9
2018-Apr-23 16:44 085 8.3
2018-Apr-23 16:29 085 8.3
2018-Apr-23 16:13 085 7.8
2018-Apr-23 15:58 085 7.8
2018-Apr-23 15:43 085 7.2
2018-Apr-23 15:28 085 7.2
2018-Apr-23 15:13 085 7.2
2018-Apr-23 14:58 085 7.2
2018-Apr-23 14:43 085 7.2
2018-Apr-23 14:28 085 7.2
2018-Apr-23 14:13 085 6.7
2018-Apr-23 13:58 085 6.7
2018-Apr-23 13:43 085 6.7
2018-Apr-23 13:28 085 6.7
2018-Apr-23 13:13 085 6.7
2018-Apr-23 12:58 085 6.7
2018-Apr-23 12:43 085 6.7
2018-Apr-23 12:28 085 6.7
2018-Apr-23 12:13 085 6.7
2018-Apr-23 11:58 085 6.1
2018-Apr-23 11:43 085 6.7
2018-Apr-23 11:28 085 6.7
2018-Apr-23 11:13 085 6.7
2018-Apr-23 10:58 085 6.7
2018-Apr-23 10:43 085 7.2
2018-Apr-23 10:28 085 7.8
2018-Apr-23 10:13 085 7.8
2018-Apr-23 09:58 085 7.8
2018-Apr-23 09:43 085 8.3
2018-Apr-23 09:28 085 8.3
2018-Apr-23 09:13 085 8.9
2018-Apr-23 08:58 085 9.4
2018-Apr-23 08:43 085 10.0
2018-Apr-23 08:28 085 10.6
2018-Apr-23 08:13 085 11.1
2018-Apr-23 07:58 085 11.7
2018-Apr-23 07:43 085 12.8
2018-Apr-23 07:28 085 13.3
2018-Apr-23 07:13 085 14.4
2018-Apr-23 06:58 085 15.0
2018-Apr-23 06:43 085 15.6
2018-Apr-23 06:28 085 16.1
2018-Apr-23 06:13 126 16.7
2018-Apr-23 05:58 092 17.2
2018-Apr-23 05:43 144 0 gusting 3 17.2
2018-Apr-23 05:28 121 1 gusting 3 17.8
2018-Apr-23 05:13 050 0 gusting 3 18.3
2018-Apr-23 04:58 136 1 gusting 4 18.3
2018-Apr-23 04:43 360 1 gusting 2 18.3
2018-Apr-23 04:28 165 0 gusting 2 17.8
2018-Apr-23 04:13 190 1 gusting 5 17.2
2018-Apr-23 03:58 194 0 gusting 4 17.2
2018-Apr-23 03:43 360 2 gusting 4 17.2
2018-Apr-23 03:28 360 0 gusting 3 17.2
2018-Apr-23 03:13 360 1 gusting 5 16.7
2018-Apr-23 02:57 360 3 gusting 8 16.1
2018-Apr-23 02:42 248 3 gusting 6 16.1
2018-Apr-23 02:27 238 2 gusting 6 16.7
2018-Apr-23 02:12 214 0 gusting 4 16.1
2018-Apr-23 01:57 140 15.6
2018-Apr-23 01:42 271 0 gusting 3 14.4
2018-Apr-23 01:27 319 0 gusting 2 13.3
2018-Apr-23 01:12 319 0 gusting 2 12.2
2018-Apr-23 00:57 338 12.2
2018-Apr-23 00:42 338 11.7
2018-Apr-23 00:27 338 0 gusting 2 11.7
2018-Apr-23 00:12 342 0 gusting 3 11.1
2018-Apr-22 23:57 055 11.1
2018-Apr-22 23:42 055 11.1
2018-Apr-22 23:27 340 0 gusting 2 11.1
2018-Apr-22 22:57 046 11.1
2018-Apr-22 22:42 051 11.1
2018-Apr-22 22:27 054 11.1
2018-Apr-22 22:12 054 11.1
2018-Apr-22 21:57 054 11.1
2018-Apr-22 21:42 078 10.6
2018-Apr-22 21:26 078 10.6
2018-Apr-22 21:11 078 10.6
2018-Apr-22 20:56 078 10.6
2018-Apr-22 20:41 078 10.6
2018-Apr-22 20:26 078 10.6
2018-Apr-22 20:11 161 10.0
2018-Apr-22 19:56 161 10.0
2018-Apr-22 19:41 161 10.0
2018-Apr-22 19:26 161 9.4
2018-Apr-22 19:11 161 8.9
2018-Apr-22 18:56 161 8.9
2018-Apr-22 18:41 161 8.9
2018-Apr-22 18:26 161 8.3
2018-Apr-22 18:11 161 7.8
2018-Apr-22 17:56 161 7.8
2018-Apr-22 17:41 161 7.8
2018-Apr-22 17:26 161 7.8
2018-Apr-22 17:11 161 7.8
2018-Apr-22 16:56 161 7.8
2018-Apr-22 16:41 161 7.2
2018-Apr-22 16:26 161 7.2
2018-Apr-22 16:11 161 7.2
2018-Apr-22 15:56 161 6.7
2018-Apr-22 15:41 161 6.7
2018-Apr-22 15:26 161 7.2
2018-Apr-22 15:11 161 6.7
2018-Apr-22 14:56 161 7.2
2018-Apr-22 14:41 161 7.2
2018-Apr-22 14:26 161 7.2
2018-Apr-22 14:11 161 7.8
2018-Apr-22 13:56 161 7.8
2018-Apr-22 13:41 161 7.8
2018-Apr-22 13:26 161 7.8
2018-Apr-22 13:11 161 7.8
2018-Apr-22 12:56 161 7.8
2018-Apr-22 12:41 161 8.3
2018-Apr-22 12:26 161 8.9
2018-Apr-22 12:11 161 8.9
2018-Apr-22 11:56 161 8.9
2018-Apr-22 11:40 161 9.4
2018-Apr-22 11:25 161 9.4
2018-Apr-22 11:10 161 10.0
2018-Apr-22 10:55 161 10.0
2018-Apr-22 10:40 161 10.0
2018-Apr-22 10:25 161 10.6
2018-Apr-22 10:10 161 10.6
2018-Apr-22 09:55 161 11.1
2018-Apr-22 09:40 161 11.1
2018-Apr-22 09:25 161 11.7
2018-Apr-22 09:10 161 12.2
2018-Apr-22 08:55 161 12.8
2018-Apr-22 08:40 161 13.3
2018-Apr-22 08:25 161 13.3
2018-Apr-22 08:10 161 14.4
2018-Apr-22 07:55 161 15.0
2018-Apr-22 07:40 161 15.6
2018-Apr-22 07:25 161 16.1
2018-Apr-22 07:11 161 16.7
2018-Apr-22 06:55 161 17.2
2018-Apr-22 06:40 119 0 gusting 3 17.2
2018-Apr-22 06:25 154 17.8
2018-Apr-22 06:10 173 0 gusting 5 17.8
2018-Apr-22 05:55 238 0 gusting 4 18.3
2018-Apr-22 05:40 133 1 gusting 5 18.9
2018-Apr-22 05:25 192 18.9
2018-Apr-22 05:10 233 0 gusting 6 19.4
2018-Apr-22 04:55 150 0 gusting 4 20.0
2018-Apr-22 04:40 270 0 gusting 3 19.4
2018-Apr-22 04:25 212 0 gusting 5 20.0
2018-Apr-22 04:10 094 0 gusting 2 20.6
2018-Apr-22 03:55 134 1 gusting 4 20.0
2018-Apr-22 03:40 156 1 gusting 5 20.0
2018-Apr-22 03:25 211 0 gusting 3 20.0
2018-Apr-22 03:10 098 0 gusting 6 20.0
2018-Apr-22 02:55 360 1 gusting 3 20.0
2018-Apr-22 02:40 063 0 gusting 2 20.0
2018-Apr-22 02:25 196 0 gusting 1 19.4
2018-Apr-22 02:10 177 0 gusting 2 19.4
2018-Apr-22 01:55 153 0 gusting 2 19.4
2018-Apr-22 01:40 225 19.4
2018-Apr-22 01:25 262 19.4
2018-Apr-22 01:09 305 0 gusting 2 18.9
2018-Apr-22 00:54 252 0 gusting 2 18.3
2018-Apr-22 00:39 303 18.3
2018-Apr-22 00:24 284 0 gusting 3 17.8
2018-Apr-22 00:09 265 0 gusting 2 17.2
2018-Apr-21 23:54 105 16.7
2018-Apr-21 23:39 259 15.6
2018-Apr-21 23:24 189 0 gusting 1 14.4
2018-Apr-21 23:09 185 13.3
2018-Apr-21 22:54 185 12.2
2018-Apr-21 22:39 185 11.7
2018-Apr-21 22:24 185 11.7
2018-Apr-21 22:09 185 11.1
2018-Apr-21 21:54 185 11.1
2018-Apr-21 21:39 148 10.6
2018-Apr-21 21:24 148 10.0
2018-Apr-21 21:09 148 10.0
2018-Apr-21 20:54 148 10.0
2018-Apr-21 20:39 148 10.0
2018-Apr-21 20:23 148 10.0
2018-Apr-21 20:08 148 9.4
2018-Apr-21 19:53 148 9.4
2018-Apr-21 19:38 148 9.4
2018-Apr-21 19:23 148 8.9
2018-Apr-21 19:08 148 8.9